Terminal Aerodrome Forecast
Issued by NWS

Home | Current Version | Previous Version | Text Only | Print | Product List | Glossary Off
Versions: 1 2 3 4 5 6 7 8 9 10 11 12 13 14 15 16 17 18 19 20 21 22 23 24 25 26 27 28 29 30 31

000
FTUS43 KLOT 190500
TAFDPA
TAF
KDPA 190520Z 1906/2006 06006KT P6SM SKC
     FM191600 12009KT P6SM FEW300
     FM200100 16007KT P6SM SCT300=

USA.gov is the U.S. government's official web portal to all federal, state and local government web resources and services.